Regional Weather Roundup
Issued by NWS Upton, NY

Current Version | Previous Version | Text Only | Print | Product List | Glossary On
Versions: 1 2 3 4 5 6 7 8 9 10 11 12 13 14 15 16 17 18 19 20 21 22 23 24 25 26 27 28 29 30 31 32 33 34 35 36 37 38 39 40 41 42 43 44 45 46 47 48 49 50
141
ASUS41 KOKX 211805
RWROKX

Regional Weather Roundup
National Weather Service New York NY
200 PM EDT SAT APR 21 2018

Note: "FAIR" indicates few or no clouds below 12,000 feet with no
significant weather and/or obstructions to visibility.

NYZ071-072-176-178-NJZ106-104-211900-
New York City Metro Area

CITY           SKY/WX    TMP DP  RH WIND       PRES   REMARKS
Central Park   FAIR      57  20  23 VRB7      30.35F
Bronx Bot Gard   N/A     57  23  26 NW7       30.35S
Bronx Lehman C   N/A     55  23  28 NW12        N/A
LaGuardia Arpt FAIR      57  23  26 NW13G20   30.32F
Queens College   N/A     55  25  30 NW10        N/A
Kennedy Intl   FAIR      58  23  26 NW13      30.34F
Breezy Point     N/A     55 N/A N/A W9          N/A
Brooklyn Coll    N/A     55  23  28 W12         N/A
Staten Island    N/A     57  25  28 W12         N/A
Newark/Liberty FAIR      59  30  33 NW13G18   30.33F
Teterboro      FAIR      58  28  32 NW21G26   30.32F
$$

NYZ177-179-078>081-211900-
Long Island New York

CITY           SKY/WX    TMP DP  RH WIND       PRES   REMARKS
Jones Beach      N/A     52 N/A N/A SW9         N/A
Wantagh          N/A     57  25  28 NW10        N/A
Hempstead        N/A     55  27  33 NW3       30.34F
Matinecock Pt    N/A     54 N/A N/A W12         N/A
Farmingdale    FAIR      56  25  30 NW9       30.32F
MacArthur/ISP  FAIR      56  23  27 NW10G23   30.31F
Stony Brook      N/A     54  27  35 W9          N/A
Shirley        FAIR      56  25  30 NW16      30.32F
Mt Sinai Harb    N/A    N/A N/A N/A W5G10       N/A
Westhampton    FAIR      56  20  24 NW15G22   30.32F
East Hampton   FAIR      53  23  30 W14       30.29F
Southold         N/A     52  32  46 W8          N/A
Montauk          N/A     54  26  34 W12G18    30.30F
$$

NYZ052-065-067-211900-
Hudson Valley

CITY           SKY/WX    TMP DP  RH WIND       PRES   REMARKS
White Plains   FAIR      55  22  27 W13G23    30.30F
Larchmont Harb   N/A     52 N/A N/A W14         N/A
Croton On Huds   N/A     54 N/A N/A SW7         N/A
Somers           N/A     55  25  30 NW10        N/A
Brewster         N/A     55  23  28 W9G21       N/A
Newburgh       SUNNY     55  23  28 NW8G20    30.32F
Montgomery     FAIR      57  24  28 W10G18    30.30F
Otisville        N/A     54  23  30 NW12        N/A
Warwick          N/A     55  25  30 NW9         N/A
Suffern          N/A     54  25  32 NW14        N/A
Poughkeepsie   FAIR      57  22  25 NW9       30.30F
Albany         FAIR      56  21  25 W15       30.30F
$$

NJZ001-105-106-008-010-013-015-019>022-104-211900-
New Jersey

CITY           SKY/WX    TMP DP  RH WIND       PRES   REMARKS
Newark/Liberty FAIR      59  30  33 NW13G18   30.33F
Teterboro      FAIR      58  28  32 NW21G26   30.32F
Caldwell       FAIR      58  21  24 NW14G21   30.33F
Somerville     FAIR      58  26  29 VRB7      30.32F
Linden         FAIR      58  25  28 CALM      30.34F
Perth Amboy      N/A     54 N/A N/A NW14        N/A
Sussex         FAIR      58  25  28 N12G20    30.32F
Andover          N/A     56  23  27 VRB5      30.32F
Trenton        FAIR      56  26  31 W6G17     30.35F
Millville      FAIR      57  26  30 N9G16     30.38F
Atlantic City  FAIR      60  26  27 NW9G20    30.36F
Wrightstown    FAIR      58  26  29 W9        30.33
Toms River     FAIR      58  24  27 W10G18    30.36F
Belmar         FAIR      58  23  26 W12G20    30.35F
$$

PAZ047>061-062-071-211900-
Eastern Pennsylvania

CITY           SKY/WX    TMP DP  RH WIND       PRES   REMARKS
Philadelphia   PTSUNNY   56  24  29 W7        30.38F
Allentown      FAIR      58  23  26 VRB5      30.35F
Scranton       FAIR      53  25  33 W10G16    30.35F
$$

CTZ002-004>006-009-010-012-RIZ004-006-007-MAZ004-011-015-211900-
Southern New England

 In CT

CITY           SKY/WX    TMP DP  RH WIND       PRES   REMARKS
Bradley Intl   FAIR      59  22  24 NW15G22   30.26F
Hartford       FAIR      58  24  27 NW12      30.27F
Danbury        FAIR      55  23  28 NW8       30.30F
Wtrbury/Oxford FAIR      54  22  28 NW13G20   30.29F
Norwalk Harbor   N/A     52 N/A N/A NW15        N/A
Bridgeport     FAIR      58  21  24 NW10      30.30F
Meriden        FAIR      57  23  26 NW15      30.28F
New Haven      FAIR      56  24  29 W5        30.29F
Chester        FAIR      57  21  24 W9G18     30.27F
Groton         FAIR      51  36  56 SW15      30.26F
Willimantic    FAIR      57  23  26 NW12      30.26F

 In RI

CITY           SKY/WX    TMP DP  RH WIND       PRES   REMARKS
Providence     FAIR      57  24  28 W10G18    30.25F
Block Island   FAIR      52  29  41 W16G24    30.28F
Westerly       FAIR      54  30  40 SW12G22   30.27F

In MA

CITY           SKY/WX    TMP DP  RH WIND       PRES   REMARKS
Boston         FAIR      56  22  26 NW13G24   30.22
Worcester      FAIR      52  22  30 W15G24    30.22F
Westfield      FAIR      58  19  22 N16G28    30.25F
Provincetown   FAIR      50  27  40 NE7       30.25F
Nantucket      FAIR      51  24  34 N9        30.28F
$$

ANZ330-335-338-340-345-350-353-355-211900-
Coastal Marine Observations


STATION/POSITION TIME  SKY/WX   TEMP    WIND        PRES    VSBY  WAVE
                                AIR SEA DIR/SP/G                  HT/PER
                 (UTC)          (F)     (DEG/KT/KT) (MB)    (MI)  (FT/S)
NY Harb Entrance 1750            48 45  250/  4/  6 1027.6          1
20 S Fire Island 1750            45 43  260/  8/ 10 1027.8          1/ 8
23 SSW Montauk P 1750            44 43  240/ 10/ 14 1026.8          2/ 4
15 E Barnegat Li 1730               46                N/A           2/13
Hudson Canyon    1750            44 45  280/ 10/ 12 1028.1          3/ 5
Kings Point      1748            51 45  350/  9/ 12 1027.8
Execution Rocks  NOT AVBL
Western LI Sound NOT AVBL
Central LI Sound 1745            45     250/ 12/ 14   N/A           1
Robbins Reef     1748            54     280/ 10/ 14 1027.9
$$


>>>>>>>>>>>>>>>>>>>>>>>>>>>> KEY <<<<<<<<<<<<<<<<<<<<<<<<<<<
>                                                          <
>     SKY/WX - Sky Condition/Present Weather               <
>     TMP    - Temperature in Fahrenheit                   <
>     DP     - Dew Point in Fahrenheit                     <
>     RH     - Relative Humidity in Percent                <
>     WIND   - Direction (from) and Speed in MPH           <
>     PRES   - Mean Sea Level Pressure (inches of Hg)      <
>     WCI    - Wind Chill Index                            <
>     VSB    - Visibility in Miles                         <
>     HX     - Heat Index                                  <
>     TC     - Temperature in Celsius                      <
>     VRB    - Varibale Wind Direction                     <
>                                                          <
>>>>>>>>>>>>>>>>>>>>>>>>>>>> KEY <<<<<<<<<<<<<<<<<<<<<<<<<<<




USA.gov is the U.S. government's official web portal to all federal, state and local government web resources and services.